STARLINK-4373 (53219 NORAD) Tracking and Keplerian Element Data

This shows tracking and keplerian element data for the satellite.

Feedback or suggestion? Click here.




ElementValue
Catalog53219
NameSTARLINK-4373
Epoch Orbit1035
Epoch Day270.13639247
Epoch Year2022
RAAN329.9611
Inclination97.6533
Eccentricity6.65E-05
Argument of Perigee106.9685
Mean Anonmoly253.1613
Mean Motion15.012583
Decay Rate-1.448E-05
L11 53219U 22084AG 22270.13639247 -.00001448 00000+0 -10816-3 0 9991
L22 53219 97.6533 329.9611 0000665 106.9685 253.1613 15.01258300 10353

Live tracking and technical data element details for STARLINK-4373 (NORAD 53219). STARLINK-4373 can be tracked NOW for your location showing map with azimuth and elevation plus other details from your city location.

Track the satellite on the map from your city or location and see movement details for azimuth, elevation, latitude, longitude, range, height, and movement on the map or in text.







IsCatalogInMostPopularTable: catalog: 53219, numindb: 7
Update: records affected: 1



GetName: 53219 STARLINK-4373

Hit Count: updated at: Fri, 30 Sep 2022 02:19:59 GMT